Theta_e
311 310 312 312 309 309 310 311 312 311 310 311 309 311 309 311 310 310 311 312 317 321 324 326 329 330 329 330 331 331 331 330 332 332 332 330 334 332 329 329 328 327 326 326
309 311 310 310 310 311 310 311 310 311 310 311 309 310 310 309 310 311 311 312 315 319 322 326 328 329 330 330 330 331 330 330 331 333 332 332 327 329 328 327 326 326 326 325
311 311 310 311 310 311 309 309 308 311 310 309 309 309 311 310 310 311 311 312 314 315 315 318 325 328 329 329 330 331 331 331 332 333 333 331 329 327 326 326 326 325 325 325
312 311 310 311 311 310 309 308 309 309 308 309 307 309 305 307 308 309 311 311 312 312 312 313 316 321 327 328 329 330 331 331 332 332 330 328 326 325 325 325 324 324 324 323
313 311 310 311 311 309 310 309 309 308 307 308 308 306 304 306 307 308 309 310 311 311 312 312 312 312 311 312 320 328 329 330 331 332 329 328 327 325 324 323 323 322 322 321
313 309 310 311 310 309 309 310 308 309 308 308 307 306 305 306 308 309 308 310 311 311 311 312 312 312 312 311 310 310 314 326 329 330 328 328 326 324 322 322 321 320 320 319
309 309 308 311 311 310 310 310 310 311 311 309 305 304 307 305 305 306 308 310 310 311 312 312 311 311 311 311 311 310 309 313 326 329 327 326 324 321 320 320 320 318 318 315
310 311 308 308 310 310 308 310 309 309 309 307 305 308 308 306 307 308 310 311 311 311 311 311 311 311 311 312 311 308 309 312 323 327 327 324 324 321 320 320 312 312 310 308
310 310 308 308 309 309 310 308 306 307 297 307 304 304 305 309 309 308 309 310 311 311 311 311 310 311 311 313 313 310 310 314 321 325 326 324 324 319 312 310 308 306 304 302
308 310 309 308 309 309 309 307 310 306 309 308 306 306 306 308 310 307 307 308 310 310 310 310 310 310 311 313 315 315 313 314 317 319 321 321 312 310 308 305 303 302 301 300
309 310 309 309 309 309 308 308 306 307 307 309 305 306 302 306 309 308 308 308 310 310 310 310 309 309 310 311 312 314 315 315 315 314 312 310 307 304 303 301 300 300 299 299
309 309 309 309 308 307 307 307 307 309 307 305 306 306 306 304 305 309 308 309 310 310 310 309 309 309 309 309 308 309 310 310 310 309 307 305 303 301 300 300 299 299 298 298
309 309 310 310 309 308 308 307 307 306 306 308 310 307 305 306 305 309 308 310 310 310 310 309 308 308 308 308 308 308 308 307 305 304 303 302 300 299 299 299 298 298 297 296
310 309 310 310 309 308 309 308 307 308 308 306 305 307 307 306 306 307 309 310 310 310 310 309 308 307 307 307 307 306 305 304 303 302 301 300 299 298 298 298 297 296 295 295
309 309 308 309 308 308 308 309 308 308 309 308 309 304 305 305 306 308 309 309 309 310 309 309 308 308 307 307 305 304 303 302 301 300 299 299 298 298 297 296 296 295 294 294
307 305 308 309 310 309 309 307 307 308 308 305 306 305 304 307 307 308 308 309 308 310 310 309 309 308 307 306 305 303 302 301 300 299 298 298 298 297 296 295 294 294 293 293
309 307 305 304 306 308 310 309 307 308 308 308 308 309 303 305 306 308 308 309 310 311 310 310 309 309 308 306 305 303 302 300 298 298 298 297 297 296 296 294 293 293 293 293
312 310 309 309 307 310 309 306 307 307 307 307 307 306 305 307 309 310 310 310 311 310 310 310 310 309 308 307 304 303 300 299 298 297 297 297 297 296 294 293 293 293 292 292
307 312 311 315 314 312 312 307 307 307 307 306 306 307 305 308 309 308 309 311 311 311 311 312 311 310 309 307 305 301 299 298 297 297 297 297 296 295 293 293 292 292 292 292
306 308 312 304 312 312 309 309 307 306 311 309 307 307 304 306 307 308 310 310 311 311 311 310 310 309 309 307 304 301 299 298 297 297 297 296 295 293 292 292 292 292 291 291
308 305 311 303 303 305 304 304 308 310 310 309 309 308 306 305 309 310 309 310 310 311 311 310 310 310 309 307 304 300 298 298 298 297 296 295 293 292 292 291 291 291 290 290
309 309 306 301 304 309 303 304 308 307 306 308 308 307 307 308 308 308 309 309 310 310 310 310 310 309 308 307 305 301 298 298 297 296 295 294 292 291 291 291 291 290 290 290
310 308 307 308 307 303 304 303 304 306 304 304 307 309 310 308 307 307 308 309 310 310 310 310 309 308 307 306 304 302 298 297 297 296 294 292 291 291 291 290 290 290 289 289
301 301 304 307 303 303 303 302 303 303 302 301 301 303 306 307 308 308 309 309 309 309 309 308 308 307 306 304 303 300 298 297 296 295 293 291 291 290 290 290 289 289 289 289
301 302 300 301 303 301 300 302 302 302 303 303 303 302 302 303 304 306 307 308 308 308 307 307 307 306 305 304 301 297 296 296 295 293 292 293 290 290 289 289 288 288 288 288
301 303 306 304 304 304 304 306 305 304 304 305 303 302 301 301 302 304 305 306 306 306 306 305 304 304 304 302 298 295 295 295 294 293 293 290 290 289 289 288 288 288 288 288
Wind_Speed
17 7 21 19 3 6 8 6 7 3 3 4 8 4 9 15 15 17 20 24 26 27 26 27 28 28 25 24 26 24 23 22 22 21 19 17 20 19 18 16 13 11 11 12
5 18 8 8 9 4 6 9 5 0 1 3 4 8 3 8 10 22 26 26 29 28 27 26 27 28 27 27 28 28 24 23 23 21 16 17 17 17 15 14 13 13 13 14
5 3 8 7 6 9 4 7 5 5 3 3 4 6 4 6 9 14 19 25 28 29 28 28 29 28 29 29 30 31 29 25 23 20 18 16 15 15 14 14 13 13 13 14
7 4 10 7 13 9 6 7 7 7 6 5 4 5 6 7 8 8 17 23 27 28 27 27 28 29 30 30 32 31 32 30 26 23 22 19 16 17 15 15 14 14 13 13
11 10 9 12 13 9 6 7 9 7 5 5 2 1 6 2 6 8 22 24 25 27 28 28 26 26 28 31 34 34 32 30 29 25 22 19 17 16 16 15 15 14 12 11
9 7 8 9 1 8 8 7 6 5 3 2 6 7 5 6 10 14 8 27 26 26 26 24 22 21 22 23 27 31 34 32 28 27 24 21 19 17 17 16 14 13 11 10
7 5 3 17 4 0 6 9 2 0 2 6 3 4 8 6 7 9 22 34 29 27 25 24 21 20 19 19 21 25 28 30 30 30 27 22 20 14 16 17 14 14 11 7
7 7 8 6 9 8 8 12 6 7 5 3 2 6 6 5 7 13 20 35 29 27 24 21 20 19 19 18 18 20 24 27 28 30 30 23 20 16 16 16 14 13 11 9
13 6 1 2 2 6 6 7 6 7 3 3 4 6 8 0 1 7 20 31 32 29 25 23 21 20 19 18 18 20 24 28 29 28 28 24 20 17 19 18 16 14 11 7
6 4 1 1 1 0 5 8 3 2 6 4 4 4 5 6 10 8 15 28 33 28 26 24 23 22 21 21 21 22 24 27 27 27 26 25 24 22 20 18 15 11 8 5
4 4 2 3 4 8 2 3 3 5 5 6 2 6 8 16 16 17 19 27 34 32 30 27 26 24 23 23 24 26 26 27 27 28 29 28 25 22 19 15 12 8 5 2
2 5 3 6 1 1 2 7 7 5 6 1 3 6 2 6 8 16 19 31 32 32 31 29 28 28 28 28 28 28 29 29 30 29 28 26 24 20 16 13 10 6 2 2
7 2 3 3 2 1 5 5 5 5 3 8 6 6 1 2 7 21 26 32 35 33 31 31 31 32 31 30 30 30 30 30 29 28 26 24 21 18 14 11 7 3 2 5
15 4 6 9 8 7 5 6 6 8 4 4 7 5 5 5 8 15 24 35 37 37 36 35 36 34 32 32 32 33 32 30 29 27 24 22 19 15 12 8 4 3 4 6
5 6 5 2 4 11 6 9 15 13 21 13 21 11 9 8 12 25 27 30 37 40 40 41 41 39 37 36 36 34 33 32 30 28 24 21 18 14 10 7 4 3 4 7
2 1 3 1 6 0 4 10 12 15 12 9 2 6 8 12 14 19 29 34 36 43 46 45 43 42 42 42 41 39 36 34 31 28 24 21 17 13 9 6 4 4 6 9
7 5 3 4 2 3 3 12 15 16 17 18 15 22 7 5 13 25 30 37 44 47 49 49 50 49 47 47 44 43 40 37 33 28 25 22 17 13 9 7 5 5 8 11
14 10 2 2 3 4 6 6 10 15 9 18 8 4 12 15 22 28 34 39 43 45 47 49 51 51 50 47 45 43 41 37 33 30 26 22 17 13 10 8 7 8 8 9
2 16 3 5 6 8 9 7 7 7 10 7 12 16 11 15 15 18 30 37 42 44 45 47 51 53 52 50 48 45 42 38 34 30 25 21 16 13 11 9 8 7 8 10
4 4 8 3 5 12 2 18 13 8 16 18 17 12 10 15 6 15 33 37 40 44 44 45 47 50 53 52 49 47 45 41 36 31 26 20 17 14 12 10 8 8 9 9
4 2 13 4 5 9 7 4 24 9 12 6 21 26 23 10 27 37 20 30 38 43 44 43 44 48 51 51 50 49 45 42 35 30 25 21 18 15 13 11 9 8 7 9
8 7 4 3 1 15 6 5 16 5 2 1 4 13 19 32 28 23 21 21 26 36 42 43 43 44 46 50 52 50 46 40 35 30 25 22 19 16 13 12 10 8 8 9
5 6 6 10 8 3 11 2 4 1 2 1 3 4 7 12 21 24 23 21 23 28 36 42 43 44 44 49 51 50 45 40 35 30 26 22 20 16 14 13 12 11 10 10
3 2 4 4 2 3 9 4 4 3 3 2 2 5 4 4 7 12 14 17 22 25 32 37 41 42 43 50 50 46 44 40 34 29 25 22 19 17 16 15 14 13 13 12
2 4 5 4 0 2 4 6 5 4 2 3 6 6 7 5 6 10 13 15 20 26 30 34 37 38 41 48 48 45 42 38 33 28 23 22 21 20 18 16 15 14 14 14
5 4 3 1 1 2 2 5 8 2 2 2 7 8 9 9 8 10 13 16 19 24 28 30 33 35 41 48 48 46 40 34 29 26 24 24 23 20 18 16 15 14 15 17
Wind_Direction
179 175 205 206 144 155 142 138 171 218 203 146 205 218 206 191 201 211 211 209 203 204 203 208 207 204 210 215 218 225 229 228 227 224 226 234 218 222 227 234 236 239 254 265
164 215 182 154 181 189 142 162 186 70 66 160 164 232 234 205 216 210 208 207 201 198 199 197 200 201 205 209 214 221 230 229 226 231 240 247 232 223 228 233 242 250 253 261
183 260 174 163 176 194 200 169 174 162 140 60 109 304 212 233 220 216 211 208 200 203 203 200 201 204 208 213 218 219 223 224 227 229 228 230 218 223 230 238 246 253 253 257
263 193 184 189 198 188 203 195 168 148 132 189 157 255 246 216 200 203 200 200 202 198 198 203 206 209 210 213 215 218 221 220 219 217 222 228 222 221 227 232 236 237 244 246
205 226 198 198 203 167 197 143 162 160 148 124 205 148 261 136 213 221 209 197 190 199 203 207 213 218 218 220 221 221 223 221 213 210 220 224 226 215 217 218 223 228 233 236
251 279 190 193 282 187 142 98 51 66 101 242 197 171 253 188 205 208 199 202 197 201 202 208 215 221 224 223 223 222 222 220 212 206 212 215 218 211 208 209 208 207 207 213
170 208 210 167 203 235 164 146 131 142 184 217 158 159 239 229 234 208 203 203 198 200 206 211 215 221 222 218 215 215 214 213 209 203 200 207 201 210 192 195 213 204 207 197
160 200 186 175 193 182 191 175 154 175 188 205 122 226 243 223 256 235 225 207 191 192 206 211 211 210 208 204 201 204 203 208 202 199 202 195 211 204 206 203 175 166 166 163
178 181 208 184 156 174 190 187 153 98 20 75 212 281 301 205 109 169 175 182 186 190 198 203 199 201 196 192 188 192 196 200 197 196 198 194 207 199 175 165 161 163 160 155
181 132 53 124 191 14 189 156 106 15 136 219 260 263 232 232 223 183 176 182 187 188 193 193 190 191 186 184 181 183 186 189 189 192 195 192 177 169 165 162 163 159 158 159
126 113 155 110 208 170 146 202 77 121 149 177 180 253 214 205 207 192 189 181 185 187 188 187 186 185 182 177 175 174 173 171 169 170 170 169 165 166 164 162 163 162 167 191
113 102 145 193 261 318 277 208 175 177 219 284 160 263 176 226 207 180 176 185 190 192 189 188 185 183 181 176 171 168 166 167 167 168 167 167 166 166 166 168 170 172 191 297
175 130 96 51 8 262 225 207 174 107 77 199 177 252 20 313 171 182 177 188 191 191 190 189 188 188 184 179 174 174 173 174 171 170 172 170 168 168 171 172 175 187 280 304
141 144 170 190 208 134 210 210 189 186 178 184 223 221 245 215 185 178 184 193 194 193 193 193 193 191 187 185 182 181 179 179 175 174 175 175 174 173 176 181 187 232 277 309
151 190 182 254 208 190 203 204 196 199 217 198 236 202 225 213 195 194 192 188 192 196 198 199 197 194 191 190 189 187 184 183 182 180 180 179 179 181 184 192 213 254 295 308
63 201 135 350 339 230 186 197 188 212 226 250 177 247 212 231 188 184 195 190 192 201 205 205 203 200 197 195 194 191 189 188 187 185 184 186 186 187 194 210 231 269 300 305
125 128 95 250 285 78 314 207 196 219 218 218 223 237 157 187 193 195 198 200 205 209 210 209 209 206 203 200 198 195 193 192 189 188 189 191 191 196 203 218 242 278 294 302
182 207 107 149 5 184 259 201 189 204 217 221 236 227 183 209 220 224 222 216 218 218 214 215 214 212 209 204 201 199 196 193 193 191 193 195 197 202 213 227 249 275 292 304
338 188 183 213 212 306 280 241 158 165 256 206 214 237 202 213 230 239 233 235 236 228 227 225 221 216 211 207 203 199 197 196 195 195 197 200 203 209 220 238 260 276 291 300
65 151 179 143 178 223 292 220 203 94 268 234 228 233 181 169 208 243 233 231 235 236 231 224 220 217 215 209 204 200 199 197 197 198 200 203 209 215 224 236 253 265 281 305
103 61 198 161 230 275 226 131 141 152 262 198 218 220 197 193 222 249 255 239 239 235 230 226 224 223 217 209 203 202 201 201 200 199 202 207 212 218 226 239 247 264 294 309
156 151 188 100 141 259 149 107 166 226 33 158 224 232 227 237 237 249 253 244 237 234 229 229 225 222 219 210 205 203 203 201 199 201 206 211 215 220 229 241 249 264 283 301
177 187 174 185 213 220 193 26 184 107 105 96 290 284 267 254 246 251 255 249 237 231 229 227 223 219 214 208 207 204 202 200 201 204 209 212 216 225 235 244 250 260 272 284
249 207 179 107 204 181 199 211 197 159 125 65 6 318 300 293 287 264 255 242 232 228 223 221 218 215 209 203 204 206 202 200 203 207 210 215 226 231 238 243 251 259 269 280
211 138 167 280 218 63 78 219 213 168 236 323 326 330 310 283 287 283 269 253 237 228 223 220 218 215 209 202 202 200 201 202 204 208 214 228 227 234 238 245 254 262 272 281
197 171 185 170 69 104 145 67 67 75 84 18 341 331 315 310 299 279 271 261 248 235 228 221 218 214 209 202 199 198 199 204 208 214 223 226 230 235 240 246 257 265 273 280